Regional Weather Roundup
Issued by NWS Albany, NY

Home | Current Version | Previous Version | Text Only | Print | Product List | Glossary On
Versions: 1 2 3 4 5 6 7 8 9 10 11 12 13 14 15 16 17 18 19 20 21 22 23 24 25 26 27
000
ASUS41 KALY 231410
RWRALY

NEW YORK STATE HOURLY WEATHER ROUNDUP
NATIONAL WEATHER SERVICE ALBANY NY
900 AM EST THU FEB 23 2017

NOTE: "FAIR" INDICATES FEW OR NO CLOUDS BELOW 12,000 FEET WITH NO
SIGNIFICANT WEATHER AND/OR NO OBSTRUCTIONS TO VISIBILITY.

NYZ032-033-038>043-046>054-057>066-NYZ062>081-082-084-231500-
EAST


CITY           SKY/WX    TMP DP  RH WIND       PRES   REMARKS
ALBANY         MOSUNNY   48  38  68 S14       29.82F
GLENS FALLS    SUNNY     48  38  68 S9        29.80F
POUGHKEEPSIE   SUNNY     46  40  79 SE3       29.88S
NEWBURGH       SUNNY     48  43  81 CALM      29.89S
MONTGOMERY     SUNNY     46  41  82 S8        29.86F
WHITE PLAINS   MOSUNNY   48  42  80 SW7       29.89S HAZE
ISLIP          FOG       45  45 100 SW7       29.91S VSB 1/16
NEW YORK CITY  CLOUDY    48  43  82 CALM      29.92R HAZE
CENTRAL PARK   CLOUDY    49  45  86 W6        29.93S FOG
$$

NYZ005>009-017-018-044>046-055-056-231500-
CENTRAL


CITY           SKY/WX    TMP DP  RH WIND       PRES   REMARKS
FULTON         PTSUNNY   53  43  68 SE3       29.71S
SYRACUSE       MOSUNNY   58  45  62 SW12      29.71S
ROME           CLOUDY    50  41  71 E8        29.76F
ELMIRA         MOSUNNY   44  41  89 CALM      29.80R
BINGHAMTON     PTSUNNY   50  42  74 SW8       29.80S
MONTICELLO     SUNNY     43  37  81 CALM      29.87F
$$

NYZ026>034-041>043-087-231500-
NORTH


CITY           SKY/WX    TMP DP  RH WIND       PRES   REMARKS
WATERTOWN      PTSUNNY   59  47  64 S12G18    29.66F
FORT DRUM      NOT AVBL
OGDENSBURG     FAIR      55  45  68 S10G16    29.63S
MASSENA        PTSUNNY   57  46  66 S16G23    29.62F
SARANAC LAKE   CLOUDY    48  41  76 SW8       29.69F
PLATTSBURGH    CLOUDY    41  34  76 CALM      29.70F
$$

NYZ001>004-010>016-019>021-085-231500-
WEST


CITY           SKY/WX    TMP DP  RH WIND       PRES   REMARKS
NIAGARA FALLS  CLOUDY    58  50  75 SW14G25   29.66S
BUFFALO        CLOUDY    59  51  75 SW16      29.67F
DUNKIRK        CLOUDY    61  53  75 SW17G25   29.71R
JAMESTOWN      CLOUDY    54  50  87 SW12G20   29.75S
WELLSVILLE     CLOUDY    54  50  86 SW12      29.78F
ROCHESTER      PTSUNNY   58  50  75 SW13G29   29.68F
PENN YAN       SUNNY     54  44  69 S15G22    29.75R
$$

             KEY
       WCI = WIND CHILL INDEX
       VSB = VISIBILITY
       HX  = HEAT INDEX
$$




USA.gov is the U.S. government's official web portal to all federal, state and local government web resources and services.